Location: Bourg-d�Oueil
(42.8588°N, 0.4991°E)
Time: 19:57:55
(UTC+00:00)

MINOTAUR IV R/B - Pass Details

Date: 16 June 2021
Orbit: 623 x 640 km, 72.0° (Epoch: 18 July)

Event Time Altitude Azimuth Distance (km) Brightness Sun altitude
Exits shadow 23:36:39 77° 122° (ESE) 655 4.5 -23.6°
Maximum altitude 23:36:42 77° 111° (ESE) 654 4.5 -23.6°
Drops below altitude 10° 23:41:16 10° 26° (NNE) 2,030 8.0 -23.6°
Sets 23:43:33 0° 25° (NNE) 2,945 9.0 -23.7°
